Time,TemperatureF,DewpointF,PressureIn,WindDirection,WindDirectionDegrees,WindSpeedMPH,WindSpeedGustMPH,Humidity,HourlyPrecipIn,Conditions,Clouds,dailyrainin,SoftwareType,DateUTC
2013-01-19 00:01:00,19.8,9.1,30.45,SE,135,10.3,10.5,63,0.00,,,0.00,WUHU216HW,2013-01-19 05:01:00,
2013-01-19 00:03:00,19.8,9.5,30.45,SE,135,7.2,10.5,64,0.00,,,0.00,WUHU216HW,2013-01-19 05:03:00,
2013-01-19 00:08:00,19.8,9.1,30.44,SE,135,10.5,10.5,63,0.00,,,0.00,WUHU216HW,2013-01-19 05:08:00,
2013-01-19 00:13:00,20.0,9.6,30.44,ESE,113,9.2,10.7,64,0.00,,,0.00,WUHU216HW,2013-01-19 05:13:00,
2013-01-19 00:18:00,19.8,9.5,30.45,ESE,113,10.3,10.7,64,0.00,,,0.00,WUHU216HW,2013-01-19 05:18:00,
2013-01-19 00:23:00,19.8,9.8,30.44,ESE,113,8.3,10.5,65,0.00,,,0.00,WUHU216HW,2013-01-19 05:23:00,
2013-01-19 00:28:00,19.8,9.8,30.44,SE,135,14.1,14.1,65,0.00,,,0.00,WUHU216HW,2013-01-19 05:28:00,
2013-01-19 00:33:00,19.8,9.8,30.44,SE,135,11.4,14.1,65,0.00,,,0.00,WUHU216HW,2013-01-19 05:33:00,
2013-01-19 00:38:00,19.8,9.8,30.43,ESE,113,9.6,12.1,65,0.00,,,0.00,WUHU216HW,2013-01-19 05:38:00,
2013-01-19 00:43:00,19.8,10.2,30.42,SE,135,8.5,12.1,66,0.00,,,0.00,WUHU216HW,2013-01-19 05:43:00,
2013-01-19 00:48:00,19.8,10.2,30.42,ESE,113,11.4,14.3,66,0.00,,,0.00,WUHU216HW,2013-01-19 05:48:00,
2013-01-19 00:53:00,19.8,10.5,30.42,SE,135,9.2,14.3,67,0.00,,,0.00,WUHU216HW,2013-01-19 05:53:00,
2013-01-19 00:58:00,19.8,10.5,30.42,SE,135,11.4,11.6,67,0.00,,,0.00,WUHU216HW,2013-01-19 05:58:00,
2013-01-19 01:03:00,19.8,10.8,30.42,SE,135,11.4,12.5,68,0.00,,,0.00,WUHU216HW,2013-01-19 06:03:00,
2013-01-19 01:08:00,19.8,10.8,30.41,SE,135,9.8,12.5,68,0.00,,,0.00,WUHU216HW,2013-01-19 06:08:00,
2013-01-19 01:13:00,19.8,10.8,30.41,SE,135,10.5,11.2,68,0.00,,,0.00,WUHU216HW,2013-01-19 06:13:00,
2013-01-19 01:18:00,19.8,11.2,30.41,SE,135,8.5,10.5,69,0.00,,,0.00,WUHU216HW,2013-01-19 06:18:00,
2013-01-19 01:23:00,20.0,11.0,30.41,SE,135,10.3,12.5,68,0.00,,,0.00,WUHU216HW,2013-01-19 06:23:00,
2013-01-19 01:28:00,20.0,11.3,30.41,SE,135,8.7,13.9,69,0.00,,,0.00,WUHU216HW,2013-01-19 06:28:00,
2013-01-19 01:33:00,20.0,11.3,30.41,SE,135,9.2,15.0,69,0.00,,,0.00,WUHU216HW,2013-01-19 06:33:00,
2013-01-19 01:38:00,20.0,11.7,30.41,SE,135,9.8,15.0,70,0.00,,,0.00,WUHU216HW,2013-01-19 06:38:00,
2013-01-19 01:43:00,20.0,11.7,30.41,SE,135,11.2,13.6,70,0.00,,,0.00,WUHU216HW,2013-01-19 06:43:00,
2013-01-19 01:48:00,20.0,11.7,30.41,SSE,158,11.2,12.5,70,0.00,,,0.00,WUHU216HW,2013-01-19 06:48:00,
2013-01-19 01:53:00,20.0,11.7,30.41,SE,135,10.3,12.5,70,0.00,,,0.00,WUHU216HW,2013-01-19 06:53:00,
2013-01-19 01:58:00,20.0,12.0,30.40,SE,135,7.2,10.3,71,0.00,,,0.00,WUHU216HW,2013-01-19 06:58:00,
2013-01-19 02:03:00,20.2,12.2,30.40,SSW,203,7.6,10.3,71,0.00,,,0.00,WUHU216HW,2013-01-19 07:03:00,
2013-01-19 02:08:00,20.2,12.2,30.40,SE,135,11.4,11.6,71,0.00,,,0.00,WUHU216HW,2013-01-19 07:08:00,
2013-01-19 02:13:00,20.2,12.2,30.40,SSE,158,6.9,12.8,71,0.00,,,0.00,WUHU216HW,2013-01-19 07:13:00,
2013-01-19 02:18:00,20.0,12.3,30.40,ESE,113,7.2,12.8,72,0.00,,,0.00,WUHU216HW,2013-01-19 07:18:00,
2013-01-19 02:23:00,19.8,12.2,30.39,SE,135,8.9,11.4,72,0.00,,,0.00,WUHU216HW,2013-01-19 07:23:00,
2013-01-19 02:28:00,19.8,12.2,30.39,SSE,158,7.6,11.4,72,0.00,,,0.00,WUHU216HW,2013-01-19 07:28:00,
2013-01-19 02:33:00,19.8,12.4,30.39,SE,135,8.5,9.8,73,0.00,,,0.00,WUHU216HW,2013-01-19 07:33:00,
2013-01-19 02:38:00,19.8,12.8,30.39,SE,135,10.5,12.8,74,0.00,,,0.00,WUHU216HW,2013-01-19 07:38:00,
2013-01-19 02:43:00,19.8,12.8,30.38,SE,135,9.8,12.8,74,0.00,,,0.00,WUHU216HW,2013-01-19 07:43:00,
2013-01-19 02:48:00,19.8,13.1,30.38,SE,135,9.4,11.0,75,0.00,,,0.00,WUHU216HW,2013-01-19 07:48:00,
2013-01-19 02:53:00,19.8,13.3,30.37,SE,135,12.3,12.8,76,0.00,,,0.00,WUHU216HW,2013-01-19 07:53:00,
2013-01-19 02:58:00,19.8,13.3,30.37,South,180,10.5,12.8,76,0.00,,,0.00,WUHU216HW,2013-01-19 07:58:00,
2013-01-19 03:03:00,19.6,13.1,30.37,SE,135,11.9,11.9,76,0.00,,,0.00,WUHU216HW,2013-01-19 08:03:00,
2013-01-19 03:08:00,19.6,13.5,30.37,SE,135,10.1,11.9,77,0.00,,,0.00,WUHU216HW,2013-01-19 08:08:00,
2013-01-19 03:13:00,19.8,14.0,30.37,SE,135,9.6,11.2,78,0.00,,,0.00,WUHU216HW,2013-01-19 08:13:00,
2013-01-19 03:18:00,19.8,14.0,30.36,SE,135,8.5,10.5,78,0.00,,,0.00,WUHU216HW,2013-01-19 08:18:00,
2013-01-19 03:23:00,19.8,14.0,30.35,SE,135,8.5,10.5,78,0.00,,,0.00,WUHU216HW,2013-01-19 08:23:00,
2013-01-19 03:28:00,19.8,14.0,30.35,ESE,113,7.2,10.5,78,0.00,,,0.00,WUHU216HW,2013-01-19 08:28:00,
2013-01-19 03:33:00,19.8,14.0,30.35,SSE,158,6.0,10.5,78,0.00,,,0.00,WUHU216HW,2013-01-19 08:33:00,
2013-01-19 03:38:00,19.8,14.3,30.35,SSE,158,8.5,9.4,79,0.00,,,0.00,WUHU216HW,2013-01-19 08:38:00,
2013-01-19 03:43:00,19.8,14.3,30.35,South,180,7.6,9.4,79,0.00,,,0.00,WUHU216HW,2013-01-19 08:43:00,
2013-01-19 03:48:00,19.8,14.3,30.34,SE,135,6.0,9.2,79,0.00,,,0.00,WUHU216HW,2013-01-19 08:48:00,
2013-01-19 03:53:00,19.8,14.3,30.34,South,180,6.3,9.4,79,0.00,,,0.00,WUHU216HW,2013-01-19 08:53:00,
2013-01-19 03:58:00,19.8,14.6,30.34,SSE,158,7.6,10.1,80,0.00,,,0.00,WUHU216HW,2013-01-19 08:58:00,
2013-01-19 04:03:00,20.0,14.5,30.33,SE,135,4.3,11.0,79,0.00,,,0.00,WUHU216HW,2013-01-19 09:03:00,
2013-01-19 04:08:00,20.0,14.8,30.33,SE,135,8.5,11.0,80,0.00,,,0.00,WUHU216HW,2013-01-19 09:08:00,
2013-01-19 04:13:00,20.2,14.9,30.33,SE,135,8.5,11.2,80,0.00,,,0.00,WUHU216HW,2013-01-19 09:13:00,
2013-01-19 04:18:00,20.2,14.9,30.32,SE,135,8.9,11.2,80,0.00,,,0.00,WUHU216HW,2013-01-19 09:18:00,
2013-01-19 04:23:00,20.2,14.9,30.32,SE,135,9.2,9.6,80,0.00,,,0.00,WUHU216HW,2013-01-19 09:23:00,
2013-01-19 04:28:00,20.2,15.2,30.32,South,180,6.9,9.6,81,0.00,,,0.00,WUHU216HW,2013-01-19 09:28:00,
2013-01-19 04:33:00,20.3,15.4,30.31,ESE,113,5.8,9.2,81,0.00,,,0.00,WUHU216HW,2013-01-19 09:33:00,
2013-01-19 04:38:00,20.5,15.3,30.31,ESE,113,8.5,8.5,80,0.00,,,0.00,WUHU216HW,2013-01-19 09:38:00,
2013-01-19 04:43:00,20.5,15.3,30.31,SSE,158,6.0,8.5,80,0.00,,,0.00,WUHU216HW,2013-01-19 09:43:00,
2013-01-19 04:48:00,20.5,15.3,30.30,SE,135,7.8,8.5,80,0.00,,,0.00,WUHU216HW,2013-01-19 09:48:00,
2013-01-19 04:53:00,20.5,15.3,30.30,SE,135,5.4,8.1,80,0.00,,,0.00,WUHU216HW,2013-01-19 09:53:00,
2013-01-19 04:58:00,20.7,15.2,30.30,SE,135,5.4,6.3,79,0.00,,,0.00,WUHU216HW,2013-01-19 09:58:00,
2013-01-19 05:03:00,20.9,15.4,30.30,SSE,158,4.3,6.3,79,0.00,,,0.00,WUHU216HW,2013-01-19 10:03:00,
2013-01-19 05:08:00,20.9,15.0,30.30,SE,135,6.3,6.3,78,0.00,,,0.00,WUHU216HW,2013-01-19 10:08:00,
2013-01-19 05:13:00,21.1,15.2,30.30,SSE,158,4.3,6.3,78,0.00,,,0.00,WUHU216HW,2013-01-19 10:13:00,
2013-01-19 05:18:00,21.2,15.4,30.30,SE,135,4.3,6.0,78,0.00,,,0.00,WUHU216HW,2013-01-19 10:18:00,
2013-01-19 05:23:00,21.2,15.1,30.30,ESE,113,2.7,6.0,77,0.00,,,0.00,WUHU216HW,2013-01-19 10:23:00,
2013-01-19 05:28:00,21.2,15.1,30.29,SE,135,4.5,5.8,77,0.00,,,0.00,WUHU216HW,2013-01-19 10:28:00,
2013-01-19 05:33:00,21.4,15.3,30.29,ESE,113,3.8,5.4,77,0.00,,,0.00,WUHU216HW,2013-01-19 10:33:00,
2013-01-19 05:38:00,21.4,15.3,30.29,SE,135,5.4,5.4,77,0.00,,,0.00,WUHU216HW,2013-01-19 10:38:00,
2013-01-19 05:43:00,21.6,15.5,30.29,SE,135,6.3,6.3,77,0.00,,,0.00,WUHU216HW,2013-01-19 10:43:00,
2013-01-19 05:48:00,21.8,15.7,30.29,South,180,4.7,6.3,77,0.00,,,0.00,WUHU216HW,2013-01-19 10:48:00,
2013-01-19 05:53:00,21.8,15.3,30.29,SE,135,5.4,5.6,76,0.00,,,0.00,WUHU216HW,2013-01-19 10:53:00,
2013-01-19 05:58:00,22.0,15.5,30.29,SE,135,5.4,5.6,76,0.00,,,0.00,WUHU216HW,2013-01-19 10:58:00,
2013-01-19 06:03:00,22.0,15.2,30.29,SE,135,5.4,5.4,75,0.00,,,0.00,WUHU216HW,2013-01-19 11:03:00,
2013-01-19 06:08:00,22.0,15.2,30.29,SE,135,3.8,5.8,75,0.00,,,0.00,WUHU216HW,2013-01-19 11:08:00,
2013-01-19 06:13:00,21.8,15.0,30.29,SSE,158,4.0,5.8,75,0.00,,,0.00,WUHU216HW,2013-01-19 11:13:00,
2013-01-19 06:14:00,21.8,15.0,30.29,SSE,158,3.8,4.9,75,0.00,,,0.00,WUHU216HW,2013-01-19 11:14:00,
2013-01-19 06:15:00,21.8,15.0,30.29,SE,135,2.7,4.7,75,0.00,,,0.00,WUHU216HW,2013-01-19 11:15:00,
2013-01-19 06:17:00,21.8,15.0,30.29,SSE,158,3.4,4.7,75,0.00,,,0.00,WUHU216HW,2013-01-19 11:17:00,
2013-01-19 06:18:00,21.8,15.0,30.29,SE,135,4.0,4.7,75,0.00,,,0.00,WUHU216HW,2013-01-19 11:18:00,
2013-01-19 06:20:00,21.8,15.0,30.29,SSE,158,3.4,4.7,75,0.00,,,0.00,WUHU216HW,2013-01-19 11:20:00,
2013-01-19 06:23:00,21.8,15.0,30.28,SSE,158,2.5,4.7,75,0.00,,,0.00,WUHU216HW,2013-01-19 11:23:00,
2013-01-19 06:24:00,21.8,15.0,30.29,SSE,158,2.2,4.7,75,0.00,,,0.00,WUHU216HW,2013-01-19 11:24:00,
2013-01-19 06:26:00,22.0,15.2,30.28,SE,135,2.9,4.0,75,0.00,,,0.00,WUHU216HW,2013-01-19 11:26:00,
2013-01-19 06:27:00,21.8,15.0,30.28,SE,135,2.5,4.0,75,0.00,,,0.00,WUHU216HW,2013-01-19 11:27:00,
2013-01-19 06:29:00,21.8,15.0,30.28,SE,135,2.2,3.4,75,0.00,,,0.00,WUHU216HW,2013-01-19 11:29:00,
2013-01-19 06:30:00,21.8,15.0,30.28,SSW,203,0.4,3.4,75,0.00,,,0.00,WUHU216HW,2013-01-19 11:30:00,
2013-01-19 06:33:00,22.0,15.2,30.28,SE,135,2.5,3.4,75,0.00,,,0.00,WUHU216HW,2013-01-19 11:33:00,
2013-01-19 06:35:00,22.0,15.2,30.28,SE,135,1.6,2.9,75,0.00,,,0.00,WUHU216HW,2013-01-19 11:35:00,
2013-01-19 06:36:00,21.8,15.0,30.28,SSW,203,1.6,2.5,75,0.00,,,0.00,WUHU216HW,2013-01-19 11:36:00,
2013-01-19 06:38:00,21.8,15.0,30.28,SE,135,2.2,2.5,75,0.00,,,0.00,WUHU216HW,2013-01-19 11:38:00,
2013-01-19 06:39:00,21.8,15.0,30.28,SE,135,2.5,2.5,75,0.00,,,0.00,WUHU216HW,2013-01-19 11:39:00,
2013-01-19 06:41:00,21.8,15.0,30.28,SSE,158,2.0,2.5,75,0.00,,,0.00,WUHU216HW,2013-01-19 11:41:00,
2013-01-19 06:42:00,21.8,15.0,30.28,East,90,1.1,2.5,75,0.00,,,0.00,WUHU216HW,2013-01-19 11:42:00,
2013-01-19 06:45:00,21.8,15.0,30.28,SE,135,2.5,2.5,75,0.00,,,0.00,WUHU216HW,2013-01-19 11:45:00,
2013-01-19 06:47:00,21.8,15.0,30.27,SSE,158,2.5,2.5,75,0.00,,,0.00,WUHU216HW,2013-01-19 11:47:00,
2013-01-19 06:48:00,21.8,15.0,30.27,SSW,203,0.9,2.5,75,0.00,,,0.00,WUHU216HW,2013-01-19 11:48:00,
2013-01-19 06:53:00,21.8,15.0,30.27,SSE,158,2.7,2.7,75,0.00,,,0.00,WUHU216HW,2013-01-19 11:53:00,
2013-01-19 06:54:00,21.8,15.0,30.27,SSE,158,2.7,2.7,75,0.00,,,0.00,WUHU216HW,2013-01-19 11:54:00,
2013-01-19 06:57:00,21.8,15.0,30.27,SE,135,1.1,2.7,75,0.00,,,0.00,WUHU216HW,2013-01-19 11:57:00,
2013-01-19 06:59:00,21.8,15.0,30.27,SE,135,0.7,2.7,75,0.00,,,0.00,WUHU216HW,2013-01-19 11:59:00,
2013-01-19 07:00:00,21.8,15.0,30.27,SE,135,0.7,2.7,75,0.00,,,0.00,WUHU216HW,2013-01-19 12:00:00,
2013-01-19 07:02:00,22.0,15.2,30.27,SE,135,1.3,2.7,75,0.00,,,0.00,WUHU216HW,2013-01-19 12:02:00,
2013-01-19 07:03:00,22.0,15.2,30.27,SSE,158,1.8,2.7,75,0.00,,,0.00,WUHU216HW,2013-01-19 12:03:00,
2013-01-19 07:05:00,22.0,15.2,30.27,SSE,158,1.8,1.8,75,0.00,,,0.00,WUHU216HW,2013-01-19 12:05:00,
2013-01-19 07:08:00,22.0,15.2,30.27,SSE,158,1.8,2.2,75,0.00,,,0.00,WUHU216HW,2013-01-19 12:08:00,
2013-01-19 07:11:00,22.0,15.2,30.27,SE,135,1.3,2.2,75,0.00,,,0.00,WUHU216HW,2013-01-19 12:11:00,
2013-01-19 07:12:00,22.0,15.2,30.27,SE,135,1.6,2.2,75,0.00,,,0.00,WUHU216HW,2013-01-19 12:12:00,
2013-01-19 07:14:00,22.0,15.2,30.27,SSW,203,0.4,2.2,75,0.00,,,0.00,WUHU216HW,2013-01-19 12:14:00,
2013-01-19 07:15:00,22.0,15.2,30.27,ESE,113,0.9,2.2,75,0.00,,,0.00,WUHU216HW,2013-01-19 12:15:00,
2013-01-19 07:17:00,22.0,15.2,30.27,SE,135,1.1,1.8,75,0.00,,,0.00,WUHU216HW,2013-01-19 12:17:00,
2013-01-19 07:18:00,22.0,15.2,30.27,SE,135,1.1,1.6,75,0.00,,,0.00,WUHU216HW,2013-01-19 12:18:00,
2013-01-19 07:20:00,22.0,15.2,30.27,SE,135,0.9,1.6,75,0.00,,,0.00,WUHU216HW,2013-01-19 12:20:00,
2013-01-19 07:21:00,22.0,15.2,30.26,SE,135,1.3,1.6,75,0.00,,,0.00,WUHU216HW,2013-01-19 12:21:00,
2013-01-19 07:23:00,22.0,15.2,30.27,SE,135,1.1,1.3,75,0.00,,,0.00,WUHU216HW,2013-01-19 12:23:00,
2013-01-19 07:24:00,22.0,15.2,30.27,SE,135,1.1,1.3,75,0.00,,,0.00,WUHU216HW,2013-01-19 12:24:00,
2013-01-19 07:26:00,22.0,15.2,30.26,SE,135,0.4,1.3,75,0.00,,,0.00,WUHU216HW,2013-01-19 12:26:00,
2013-01-19 07:29:00,21.8,15.0,30.26,SE,135,1.1,1.3,75,0.00,,,0.00,WUHU216HW,2013-01-19 12:29:00,
2013-01-19 07:30:00,21.8,15.0,30.26,SE,135,1.1,1.3,75,0.00,,,0.00,WUHU216HW,2013-01-19 12:30:00,
2013-01-19 07:32:00,21.8,15.0,30.26,ESE,113,1.1,1.1,75,0.00,,,0.00,WUHU216HW,2013-01-19 12:32:00,
2013-01-19 07:33:00,21.8,15.0,30.26,SSE,158,1.1,1.1,75,0.00,,,0.00,WUHU216HW,2013-01-19 12:33:00,
2013-01-19 07:35:00,21.6,14.9,30.26,SE,135,1.1,1.1,75,0.00,,,0.00,WUHU216HW,2013-01-19 12:35:00,
2013-01-19 07:36:00,21.8,15.0,30.26,SE,135,0.9,1.1,75,0.00,,,0.00,WUHU216HW,2013-01-19 12:36:00,
2013-01-19 07:38:00,21.6,14.9,30.26,SE,135,0.9,1.1,75,0.00,,,0.00,WUHU216HW,2013-01-19 12:38:00,
2013-01-19 07:47:00,21.6,14.9,30.25,SE,135,1.1,1.8,75,0.00,,,0.00,WUHU216HW,2013-01-19 12:47:00,
2013-01-19 07:48:00,21.8,15.0,30.25,SE,135,0.9,1.8,75,0.00,,,0.00,WUHU216HW,2013-01-19 12:48:00,
2013-01-19 07:53:00,21.8,15.0,30.26,SSE,158,1.8,1.8,75,0.00,,,0.00,WUHU216HW,2013-01-19 12:53:00,
2013-01-19 07:58:00,21.8,15.0,30.25,SE,135,0.9,1.8,75,0.00,,,0.00,WUHU216HW,2013-01-19 12:58:00,
2013-01-19 08:03:00,22.0,15.2,30.25,SSE,158,0.0,1.3,75,0.00,,,0.00,WUHU216HW,2013-01-19 13:03:00,
2013-01-19 08:08:00,22.1,15.4,30.26,SE,135,0.0,1.1,75,0.00,,,0.00,WUHU216HW,2013-01-19 13:08:00,
2013-01-19 08:13:00,22.5,15.8,30.26,SW,225,0.0,0.4,75,0.00,,,0.00,WUHU216HW,2013-01-19 13:13:00,
2013-01-19 08:18:00,22.9,16.1,30.26,SW,225,0.7,0.7,75,0.00,,,0.00,WUHU216HW,2013-01-19 13:18:00,
2013-01-19 08:23:00,23.2,16.5,30.26,ESE,113,1.1,1.1,75,0.00,,,0.00,WUHU216HW,2013-01-19 13:23:00,
2013-01-19 08:28:00,23.4,16.7,30.26,SE,135,0.7,1.1,75,0.00,,,0.00,WUHU216HW,2013-01-19 13:28:00,
2013-01-19 08:33:00,23.4,16.3,30.25,SSE,158,0.4,1.1,74,0.00,,,0.00,WUHU216HW,2013-01-19 13:33:00,
2013-01-19 08:38:00,23.8,16.7,30.25,SE,135,0.4,1.1,74,0.00,,,0.00,WUHU216HW,2013-01-19 13:38:00,
2013-01-19 08:43:00,23.9,16.8,30.25,SSE,158,0.4,1.1,74,0.00,,,0.00,WUHU216HW,2013-01-19 13:43:00,
2013-01-19 08:48:00,24.1,16.7,30.25,SSW,203,0.0,1.3,73,0.00,,,0.00,WUHU216HW,2013-01-19 13:48:00,
2013-01-19 08:53:00,24.5,17.0,30.25,SE,135,1.1,1.3,73,0.00,,,0.00,WUHU216HW,2013-01-19 13:53:00,
2013-01-19 08:58:00,24.5,17.0,30.25,South,180,0.4,1.1,73,0.00,,,0.00,WUHU216HW,2013-01-19 13:58:00,
2013-01-19 09:03:00,24.8,17.0,30.25,SE,135,0.9,1.1,72,0.00,,,0.00,WUHU216HW,2013-01-19 14:03:00,
2013-01-19 09:08:00,25.0,17.2,30.24,SSE,158,1.8,2.5,72,0.00,,,0.00,WUHU216HW,2013-01-19 14:08:00,
2013-01-19 09:13:00,25.0,17.2,30.24,ESE,113,0.7,2.5,72,0.00,,,0.00,WUHU216HW,2013-01-19 14:13:00,
2013-01-19 09:18:00,25.4,17.6,30.25,SSW,203,0.4,2.0,72,0.00,,,0.00,WUHU216HW,2013-01-19 14:18:00,
2013-01-19 09:23:00,25.6,17.7,30.24,SE,135,0.7,2.2,72,0.00,,,0.00,WUHU216HW,2013-01-19 14:23:00,
2013-01-19 09:28:00,25.7,17.9,30.24,SE,135,2.0,2.2,72,0.00,,,0.00,WUHU216HW,2013-01-19 14:28:00,
2013-01-19 09:33:00,26.3,18.5,30.24,SSE,158,1.8,2.0,72,0.00,,,0.00,WUHU216HW,2013-01-19 14:33:00,
2013-01-19 09:38:00,26.6,18.8,30.24,SSE,158,0.9,1.8,72,0.00,,,0.00,WUHU216HW,2013-01-19 14:38:00,
2013-01-19 09:43:00,27.0,19.2,30.24,SE,135,0.7,1.8,72,0.00,,,0.00,WUHU216HW,2013-01-19 14:43:00,
2013-01-19 09:48:00,27.4,19.5,30.24,SSE,158,0.4,1.1,72,0.00,,,0.00,WUHU216HW,2013-01-19 14:48:00,
2013-01-19 09:53:00,27.7,19.5,30.23,SE,135,0.7,1.8,71,0.00,,,0.00,WUHU216HW,2013-01-19 14:53:00,
2013-01-19 09:58:00,27.9,19.7,30.23,ESE,113,0.0,2.2,71,0.00,,,0.00,WUHU216HW,2013-01-19 14:58:00,
2013-01-19 10:03:00,28.1,19.6,30.23,ESE,113,0.4,2.2,70,0.00,,,0.00,WUHU216HW,2013-01-19 15:03:00,
2013-01-19 10:08:00,28.4,20.0,30.23,SSE,158,2.7,2.7,70,0.00,,,0.00,WUHU216HW,2013-01-19 15:08:00,
2013-01-19 10:13:00,28.8,20.4,30.23,SSE,158,3.6,3.6,70,0.00,,,0.00,WUHU216HW,2013-01-19 15:13:00,
2013-01-19 10:18:00,29.2,20.6,30.23,SE,135,2.2,3.6,70,0.00,,,0.00,WUHU216HW,2013-01-19 15:18:00,
2013-01-19 10:23:00,29.5,20.6,30.22,SSE,158,2.5,2.5,69,0.00,,,0.00,WUHU216HW,2013-01-19 15:23:00,
2013-01-19 10:28:00,29.9,20.9,30.23,SSE,158,2.2,3.1,69,0.00,,,0.00,WUHU216HW,2013-01-19 15:28:00,
2013-01-19 10:33:00,30.1,20.7,30.22,South,180,1.6,3.1,68,0.00,,,0.00,WUHU216HW,2013-01-19 15:33:00,
2013-01-19 10:38:00,30.2,20.9,30.22,SSE,158,4.7,6.3,68,0.00,,,0.00,WUHU216HW,2013-01-19 15:38:00,
2013-01-19 10:43:00,30.6,20.9,30.21,SSE,158,5.4,6.3,67,0.00,,,0.00,WUHU216HW,2013-01-19 15:43:00,
2013-01-19 10:48:00,31.0,20.9,30.20,SE,135,12.5,12.5,66,0.00,,,0.00,WUHU216HW,2013-01-19 15:48:00,
2013-01-19 10:53:00,31.1,21.1,30.19,SE,135,7.8,12.5,66,0.00,,,0.00,WUHU216HW,2013-01-19 15:53:00,
2013-01-19 10:58:00,31.3,21.2,30.19,SE,135,13.2,13.2,66,0.00,,,0.00,WUHU216HW,2013-01-19 15:58:00,
2013-01-19 11:03:00,31.3,20.9,30.19,SE,135,6.3,13.2,65,0.00,,,0.00,WUHU216HW,2013-01-19 16:03:00,
2013-01-19 11:08:00,31.3,20.5,30.19,SSE,158,7.2,10.7,64,0.00,,,0.00,WUHU216HW,2013-01-19 16:08:00,
2013-01-19 11:13:00,31.5,21.1,30.19,SSE,158,5.8,9.8,65,0.00,,,0.00,WUHU216HW,2013-01-19 16:13:00,
2013-01-19 11:18:00,31.7,21.2,30.18,South,180,9.2,10.1,65,0.00,,,0.00,WUHU216HW,2013-01-19 16:18:00,
2013-01-19 11:23:00,31.9,21.1,30.18,SSE,158,6.5,10.1,64,0.00,,,0.00,WUHU216HW,2013-01-19 16:23:00,
2013-01-19 11:28:00,32.2,21.4,30.18,SE,135,4.5,8.5,64,0.00,,,0.00,WUHU216HW,2013-01-19 16:28:00,
2013-01-19 11:33:00,32.4,21.6,30.17,SSE,158,7.6,7.8,64,0.00,,,0.00,WUHU216HW,2013-01-19 16:33:00,
2013-01-19 11:38:00,32.6,21.7,30.17,SE,135,4.0,7.8,64,0.00,,,0.00,WUHU216HW,2013-01-19 16:38:00,
2013-01-19 11:43:00,32.6,21.3,30.17,East,90,4.3,8.5,63,0.00,,,0.00,WUHU216HW,2013-01-19 16:43:00,
2013-01-19 11:48:00,32.6,21.3,30.17,SSE,158,6.5,10.5,63,0.00,,,0.00,WUHU216HW,2013-01-19 16:48:00,
2013-01-19 11:53:00,32.6,21.0,30.16,SE,135,8.1,11.9,62,0.00,,,0.00,WUHU216HW,2013-01-19 16:53:00,
2013-01-19 11:58:00,32.8,21.2,30.16,SSE,158,6.3,12.1,62,0.00,,,0.00,WUHU216HW,2013-01-19 16:58:00,
2013-01-19 12:03:00,33.1,21.5,30.15,SSE,158,9.2,12.1,62,0.00,,,0.00,WUHU216HW,2013-01-19 17:03:00,
2013-01-19 12:08:00,33.3,21.7,30.15,SW,225,4.7,10.5,62,0.00,,,0.00,WUHU216HW,2013-01-19 17:08:00,
2013-01-19 12:13:00,33.5,21.8,30.15,SE,135,6.0,10.5,62,0.00,,,0.00,WUHU216HW,2013-01-19 17:13:00,
2013-01-19 12:18:00,33.5,21.4,30.15,SSE,158,6.9,9.8,61,0.00,,,0.00,WUHU216HW,2013-01-19 17:18:00,
2013-01-19 12:23:00,33.7,22.0,30.14,SE,135,7.6,9.8,62,0.00,,,0.00,WUHU216HW,2013-01-19 17:23:00,
2013-01-19 12:28:00,33.7,22.0,30.14,SSE,158,7.8,9.2,62,0.00,,,0.00,WUHU216HW,2013-01-19 17:28:00,
2013-01-19 12:34:00,33.7,21.6,30.14,SSE,158,6.9,11.4,61,0.00,,,0.00,WUHU216HW,2013-01-19 17:34:00,
2013-01-19 12:39:00,33.7,22.0,30.14,SE,135,7.2,11.4,62,0.00,,,0.00,WUHU216HW,2013-01-19 17:39:00,
2013-01-19 12:44:00,33.8,21.8,30.14,South,180,8.7,10.1,61,0.00,,,0.00,WUHU216HW,2013-01-19 17:44:00,
2013-01-19 12:49:00,33.8,22.1,30.14,SE,135,8.7,10.1,62,0.00,,,0.00,WUHU216HW,2013-01-19 17:49:00,
2013-01-19 12:54:00,33.8,22.1,30.14,WSW,248,7.6,10.1,62,0.00,,,0.00,WUHU216HW,2013-01-19 17:54:00,
2013-01-19 12:59:00,34.0,22.3,30.14,SSE,158,10.3,10.3,62,0.00,,,0.00,WUHU216HW,2013-01-19 17:59:00,
2013-01-19 13:04:00,34.0,22.0,30.14,SE,135,11.9,11.9,61,0.00,,,0.00,WUHU216HW,2013-01-19 18:04:00,
2013-01-19 13:09:00,34.0,22.3,30.14,SSE,158,5.6,11.9,62,0.00,,,0.00,WUHU216HW,2013-01-19 18:09:00,
2013-01-19 13:14:00,34.2,22.5,30.14,SE,135,7.6,11.0,62,0.00,,,0.00,WUHU216HW,2013-01-19 18:14:00,
2013-01-19 13:20:00,34.2,22.5,30.14,SE,135,6.9,11.0,62,0.00,,,0.00,WUHU216HW,2013-01-19 18:20:00,
2013-01-19 13:25:00,34.4,22.3,30.14,SSE,158,6.9,9.8,61,0.00,,,0.00,WUHU216HW,2013-01-19 18:25:00,
2013-01-19 13:30:00,34.6,22.5,30.14,SE,135,6.7,11.4,61,0.00,,,0.00,WUHU216HW,2013-01-19 18:30:00,
2013-01-19 13:35:00,34.6,22.5,30.13,SE,135,9.8,11.4,61,0.00,,,0.00,WUHU216HW,2013-01-19 18:35:00,
2013-01-19 13:40:00,34.6,22.5,30.13,SE,135,11.4,11.4,61,0.00,,,0.00,WUHU216HW,2013-01-19 18:40:00,
2013-01-19 13:45:00,34.6,22.5,30.13,SE,135,10.7,11.4,61,0.00,,,0.00,WUHU216HW,2013-01-19 18:45:00,
2013-01-19 13:50:00,34.7,22.7,30.13,SE,135,8.3,12.1,61,0.00,,,0.00,WUHU216HW,2013-01-19 18:50:00,
2013-01-19 13:55:00,34.9,22.9,30.12,ESE,113,8.5,12.1,61,0.00,,,0.00,WUHU216HW,2013-01-19 18:55:00,
2013-01-19 14:01:00,35.1,23.0,30.12,SE,135,11.4,15.7,61,0.00,,,0.00,WUHU216HW,2013-01-19 19:01:00,
2013-01-19 14:06:00,35.3,22.9,30.12,SE,135,12.5,15.7,60,0.00,,,0.00,WUHU216HW,2013-01-19 19:06:00,
2013-01-19 14:11:00,35.3,23.2,30.12,SE,135,10.1,13.2,61,0.00,,,0.00,WUHU216HW,2013-01-19 19:11:00,
2013-01-19 14:16:00,35.5,23.4,30.12,SE,135,9.8,12.1,61,0.00,,,0.00,WUHU216HW,2013-01-19 19:16:00,
2013-01-19 14:21:00,35.6,23.6,30.12,SE,135,12.3,12.3,61,0.00,,,0.00,WUHU216HW,2013-01-19 19:21:00,
2013-01-19 14:26:00,35.8,23.8,30.12,SE,135,12.1,12.3,61,0.00,,,0.00,WUHU216HW,2013-01-19 19:26:00,
2013-01-19 14:29:00,36.0,24.0,30.12,ESE,113,11.9,11.9,61,0.00,,,0.00,WUHU216HW,2013-01-19 19:29:00,
2013-01-19 14:32:00,36.0,24.0,30.12,ESE,113,11.9,12.1,61,0.00,,,0.00,WUHU216HW,2013-01-19 19:32:00,
2013-01-19 14:37:00,36.0,24.0,30.12,ESE,113,11.9,11.9,61,0.00,,,0.00,WUHU216HW,2013-01-19 19:37:00,
2013-01-19 14:59:00,36.4,23.9,30.12,SE,135,10.3,10.3,60,0.00,,,0.00,WUHU216HW,2013-01-19 19:59:00,
2013-01-19 15:04:00,36.4,24.2,30.11,SE,135,11.2,12.3,61,0.00,,,0.00,WUHU216HW,2013-01-19 20:04:00,
2013-01-19 15:09:00,36.4,24.2,30.12,SE,135,9.2,12.3,61,0.00,,,0.00,WUHU216HW,2013-01-19 20:09:00,
2013-01-19 15:14:00,36.4,24.2,30.11,SE,135,12.3,12.3,61,0.00,,,0.00,WUHU216HW,2013-01-19 20:14:00,
2013-01-19 15:19:00,36.4,24.2,30.12,SE,135,12.1,13.4,61,0.00,,,0.00,WUHU216HW,2013-01-19 20:19:00,
2013-01-19 15:24:00,36.4,24.6,30.12,SE,135,10.5,13.4,62,0.00,,,0.00,WUHU216HW,2013-01-19 20:24:00,
2013-01-19 15:29:00,36.5,24.8,30.11,SSE,158,13.6,13.6,62,0.00,,,0.00,WUHU216HW,2013-01-19 20:29:00,
2013-01-19 15:35:00,36.5,24.8,30.12,SSE,158,10.5,13.6,62,0.00,,,0.00,WUHU216HW,2013-01-19 20:35:00,
2013-01-19 15:40:00,36.5,24.8,30.11,SE,135,10.5,11.4,62,0.00,,,0.00,WUHU216HW,2013-01-19 20:40:00,
2013-01-19 15:45:00,36.7,24.6,30.11,SE,135,11.4,12.1,61,0.00,,,0.00,WUHU216HW,2013-01-19 20:45:00,
2013-01-19 15:50:00,36.7,24.6,30.11,SE,135,10.5,13.2,61,0.00,,,0.00,WUHU216HW,2013-01-19 20:50:00,
2013-01-19 15:55:00,36.9,24.4,30.11,SE,135,11.0,13.2,60,0.00,,,0.00,WUHU216HW,2013-01-19 20:55:00,
2013-01-19 16:00:00,36.9,24.4,30.11,SE,135,9.2,12.8,60,0.00,,,0.00,WUHU216HW,2013-01-19 21:00:00,
2013-01-19 16:05:00,36.9,24.8,30.11,SE,135,9.8,10.5,61,0.00,,,0.00,WUHU216HW,2013-01-19 21:05:00,
2013-01-19 16:11:00,36.7,24.6,30.11,SE,135,11.0,12.1,61,0.00,,,0.00,WUHU216HW,2013-01-19 21:11:00,
2013-01-19 16:16:00,36.7,24.6,30.12,ESE,113,9.8,12.1,61,0.00,,,0.00,WUHU216HW,2013-01-19 21:16:00,
2013-01-19 16:21:00,36.5,24.4,30.12,SE,135,10.1,10.7,61,0.00,,,0.00,WUHU216HW,2013-01-19 21:21:00,
2013-01-19 16:26:00,36.5,24.8,30.11,SE,135,9.4,11.4,62,0.00,,,0.00,WUHU216HW,2013-01-19 21:26:00,
2013-01-19 16:31:00,36.4,24.6,30.11,SE,135,10.5,11.4,62,0.00,,,0.00,WUHU216HW,2013-01-19 21:31:00,
2013-01-19 16:36:00,36.4,24.6,30.11,ESE,113,10.5,12.1,62,0.00,,,0.00,WUHU216HW,2013-01-19 21:36:00,
2013-01-19 16:41:00,36.5,24.8,30.11,SSE,158,12.1,12.8,62,0.00,,,0.00,WUHU216HW,2013-01-19 21:41:00,
2013-01-19 16:46:00,36.5,24.8,30.11,SE,135,10.7,12.8,62,0.00,,,0.00,WUHU216HW,2013-01-19 21:46:00,
2013-01-19 16:51:00,36.5,24.8,30.11,SE,135,10.3,12.5,62,0.00,,,0.00,WUHU216HW,2013-01-19 21:51:00,
2013-01-19 16:56:00,36.5,24.8,30.11,SE,135,12.1,13.2,62,0.00,,,0.00,WUHU216HW,2013-01-19 21:56:00,
2013-01-19 17:02:00,36.5,24.8,30.11,SE,135,11.6,13.2,62,0.00,,,0.00,WUHU216HW,2013-01-19 22:02:00,
2013-01-19 17:07:00,36.7,24.9,30.11,ESE,113,9.6,11.6,62,0.00,,,0.00,WUHU216HW,2013-01-19 22:07:00,
2013-01-19 17:13:00,36.7,24.9,30.11,SE,135,7.8,11.4,62,0.00,,,0.00,WUHU216HW,2013-01-19 22:13:00,
2013-01-19 17:18:00,36.7,24.9,30.11,SE,135,7.8,9.8,62,0.00,,,0.00,WUHU216HW,2013-01-19 22:18:00,
2013-01-19 17:23:00,36.5,24.8,30.11,SE,135,8.3,10.3,62,0.00,,,0.00,WUHU216HW,2013-01-19 22:23:00,
2013-01-19 17:28:00,36.5,24.8,30.11,SE,135,10.1,10.5,62,0.00,,,0.00,WUHU216HW,2013-01-19 22:28:00,
2013-01-19 17:33:00,36.5,24.8,30.11,SE,135,7.8,10.5,62,0.00,,,0.00,WUHU216HW,2013-01-19 22:33:00,
2013-01-19 17:38:00,36.5,24.8,30.10,SE,135,9.2,10.5,62,0.00,,,0.00,WUHU216HW,2013-01-19 22:38:00,
2013-01-19 17:43:00,36.5,24.8,30.10,SE,135,9.2,10.5,62,0.00,,,0.00,WUHU216HW,2013-01-19 22:43:00,
2013-01-19 17:48:00,36.5,24.8,30.10,SE,135,8.7,9.2,62,0.00,,,0.00,WUHU216HW,2013-01-19 22:48:00,
2013-01-19 17:53:00,36.4,24.6,30.10,SE,135,6.9,9.2,62,0.00,,,0.00,WUHU216HW,2013-01-19 22:53:00,
2013-01-19 17:58:00,36.4,24.9,30.10,ESE,113,6.7,9.2,63,0.00,,,0.00,WUHU216HW,2013-01-19 22:58:00,
2013-01-19 18:03:00,36.4,24.9,30.10,SE,135,10.1,10.1,63,0.00,,,0.00,WUHU216HW,2013-01-19 23:03:00,
2013-01-19 18:08:00,36.4,24.9,30.10,SE,135,5.1,10.1,63,0.00,,,0.00,WUHU216HW,2013-01-19 23:08:00,
2013-01-19 18:13:00,36.2,24.9,30.09,SE,135,8.5,8.9,63,0.00,,,0.00,WUHU216HW,2013-01-19 23:13:00,
2013-01-19 18:18:00,36.0,24.7,30.09,SE,135,7.6,8.9,63,0.00,,,0.00,WUHU216HW,2013-01-19 23:18:00,
2013-01-19 18:23:00,36.2,24.9,30.09,ESE,113,8.1,10.3,63,0.00,,,0.00,WUHU216HW,2013-01-19 23:23:00,
2013-01-19 18:29:00,36.0,24.7,30.09,SE,135,6.9,10.3,63,0.00,,,0.00,WUHU216HW,2013-01-19 23:29:00,
2013-01-19 18:34:00,36.0,24.7,30.09,ESE,113,7.6,8.7,63,0.00,,,0.00,WUHU216HW,2013-01-19 23:34:00,
2013-01-19 18:39:00,35.6,24.3,30.09,ESE,113,8.1,8.7,63,0.00,,,0.00,WUHU216HW,2013-01-19 23:39:00,
2013-01-19 18:44:00,35.6,24.7,30.09,ESE,113,7.2,8.1,64,0.00,,,0.00,WUHU216HW,2013-01-19 23:44:00,
2013-01-19 18:49:00,35.5,24.5,30.09,ESE,113,6.3,8.1,64,0.00,,,0.00,WUHU216HW,2013-01-19 23:49:00,
2013-01-19 18:54:00,35.3,24.3,30.09,ESE,113,5.6,6.9,64,0.00,,,0.00,WUHU216HW,2013-01-19 23:54:00,
2013-01-19 18:59:00,35.1,24.5,30.09,ESE,113,4.3,6.5,65,0.00,,,0.00,WUHU216HW,2013-01-19 23:59:00,
2013-01-19 19:05:00,35.1,24.5,30.09,ESE,113,4.0,5.8,65,0.00,,,0.00,WUHU216HW,2013-01-20 00:05:00,
2013-01-19 19:10:00,34.9,24.3,30.08,ESE,113,3.8,5.4,65,0.00,,,0.00,WUHU216HW,2013-01-20 00:10:00,
2013-01-19 19:16:00,34.9,24.7,30.08,East,90,4.0,4.7,66,0.00,,,0.00,WUHU216HW,2013-01-20 00:16:00,
2013-01-19 19:21:00,34.9,24.7,30.08,ESE,113,3.4,4.9,66,0.00,,,0.00,WUHU216HW,2013-01-20 00:21:00,
2013-01-19 19:25:00,34.7,24.5,30.08,ESE,113,4.0,4.9,66,0.00,,,0.00,WUHU216HW,2013-01-20 00:25:00,
2013-01-19 19:31:00,34.7,24.5,30.08,ESE,113,3.8,5.6,66,0.00,,,0.00,WUHU216HW,2013-01-20 00:31:00,
2013-01-19 19:36:00,34.6,24.7,30.08,ESE,113,4.0,5.6,67,0.00,,,0.00,WUHU216HW,2013-01-20 00:36:00,
2013-01-19 19:42:00,34.7,24.8,30.07,East,90,2.9,4.5,67,0.00,,,0.00,WUHU216HW,2013-01-20 00:42:00,
2013-01-19 19:47:00,34.7,24.8,30.07,ESE,113,1.8,4.5,67,0.00,,,0.00,WUHU216HW,2013-01-20 00:47:00,
2013-01-19 19:53:00,34.7,24.8,30.07,ESE,113,2.2,4.0,67,0.00,,,0.00,WUHU216HW,2013-01-20 00:53:00,
2013-01-19 19:58:00,34.7,24.5,30.07,ESE,113,1.6,2.7,66,0.00,,,0.00,WUHU216HW,2013-01-20 00:58:00,
2013-01-19 20:03:00,34.6,24.7,30.06,ESE,113,2.0,2.5,67,0.00,,,0.00,WUHU216HW,2013-01-20 01:03:00,
2013-01-19 20:08:00,34.4,24.5,30.06,ESE,113,3.1,3.1,67,0.00,,,0.00,WUHU216HW,2013-01-20 01:08:00,
2013-01-19 20:13:00,34.2,24.3,30.06,ESE,113,2.2,3.1,67,0.00,,,0.00,WUHU216HW,2013-01-20 01:13:00,
2013-01-19 20:18:00,34.0,24.1,30.05,ESE,113,2.5,3.6,67,0.00,,,0.00,WUHU216HW,2013-01-20 01:18:00,
2013-01-19 20:23:00,33.8,23.9,30.05,ESE,113,2.5,4.0,67,0.00,,,0.00,WUHU216HW,2013-01-20 01:23:00,
2013-01-19 20:28:00,33.7,23.8,30.05,ESE,113,1.6,4.0,67,0.00,,,0.00,WUHU216HW,2013-01-20 01:28:00,
2013-01-19 20:33:00,33.5,23.6,30.05,East,90,2.0,2.9,67,0.00,,,0.00,WUHU216HW,2013-01-20 01:33:00,
2013-01-19 20:38:00,33.5,23.6,30.04,SE,135,4.0,4.0,67,0.00,,,0.00,WUHU216HW,2013-01-20 01:38:00,
2013-01-19 20:43:00,33.3,23.5,30.04,ESE,113,1.8,4.0,67,0.00,,,0.00,WUHU216HW,2013-01-20 01:43:00,
2013-01-19 20:49:00,33.1,23.3,30.03,SE,135,3.1,3.4,67,0.00,,,0.00,WUHU216HW,2013-01-20 01:49:00,
2013-01-19 20:54:00,32.8,23.3,30.03,SE,135,1.6,3.4,68,0.00,,,0.00,WUHU216HW,2013-01-20 01:54:00,
2013-01-19 20:59:00,32.8,23.3,30.03,SSE,158,2.2,3.4,68,0.00,,,0.00,WUHU216HW,2013-01-20 01:59:00,
2013-01-19 21:04:00,33.1,24.0,30.03,SSE,158,2.7,4.7,69,0.00,,,0.00,WUHU216HW,2013-01-20 02:04:00,
2013-01-19 21:09:00,33.7,24.1,30.02,SSW,203,5.4,7.4,68,0.00,,,0.00,WUHU216HW,2013-01-20 02:09:00,
2013-01-19 21:14:00,34.0,24.5,30.01,SSW,203,2.7,7.4,68,0.00,,,0.00,WUHU216HW,2013-01-20 02:14:00,
2013-01-19 21:19:00,34.2,24.7,30.01,SSW,203,6.7,6.7,68,0.00,,,0.00,WUHU216HW,2013-01-20 02:19:00,
2013-01-19 21:24:00,34.6,24.7,30.01,SSE,158,6.9,6.9,67,0.00,,,0.00,WUHU216HW,2013-01-20 02:24:00,
2013-01-19 21:29:00,34.7,24.8,30.01,South,180,3.1,6.9,67,0.00,,,0.00,WUHU216HW,2013-01-20 02:29:00,
2013-01-19 21:34:00,34.9,25.0,30.00,SE,135,4.7,6.9,67,0.00,,,0.00,WUHU216HW,2013-01-20 02:34:00,
2013-01-19 21:39:00,34.9,25.0,29.99,SSE,158,3.8,6.7,67,0.00,,,0.00,WUHU216HW,2013-01-20 02:39:00,
2013-01-19 21:44:00,35.1,24.8,29.99,South,180,6.0,6.3,66,0.00,,,0.00,WUHU216HW,2013-01-20 02:44:00,
2013-01-19 21:49:00,35.1,24.8,29.99,ESE,113,6.0,6.3,66,0.00,,,0.00,WUHU216HW,2013-01-20 02:49:00,
2013-01-19 21:55:00,35.3,25.0,29.99,ESE,113,7.2,7.6,66,0.00,,,0.00,WUHU216HW,2013-01-20 02:55:00,
2013-01-19 22:00:00,35.6,25.4,29.99,SSE,158,6.9,7.6,66,0.00,,,0.00,WUHU216HW,2013-01-20 03:00:00,
2013-01-19 22:05:00,35.6,25.4,29.99,NE,45,2.7,6.9,66,0.00,,,0.00,WUHU216HW,2013-01-20 03:05:00,
2013-01-19 22:10:00,35.6,25.4,29.98,SE,135,4.9,6.5,66,0.00,,,0.00,WUHU216HW,2013-01-20 03:10:00,
2013-01-19 22:15:00,35.6,25.4,29.98,SE,135,0.9,4.9,66,0.00,,,0.00,WUHU216HW,2013-01-20 03:15:00,
2013-01-19 22:20:00,35.6,25.4,29.99,SW,225,1.1,2.5,66,0.00,,,0.00,WUHU216HW,2013-01-20 03:20:00,
2013-01-19 22:25:00,35.5,25.2,29.98,WSW,248,0.9,2.2,66,0.00,,,0.00,WUHU216HW,2013-01-20 03:25:00,
2013-01-19 22:31:00,35.3,25.0,29.99,WSW,248,1.6,2.2,66,0.00,,,0.00,WUHU216HW,2013-01-20 03:31:00,
2013-01-19 22:36:00,35.1,24.8,29.98,WSW,248,1.3,2.5,66,0.00,,,0.00,WUHU216HW,2013-01-20 03:36:00,
2013-01-19 22:41:00,35.1,24.8,29.98,WSW,248,0.4,2.5,66,0.00,,,0.00,WUHU216HW,2013-01-20 03:41:00,
2013-01-19 22:46:00,35.1,24.8,29.98,ENE,68,0.7,1.1,66,0.00,,,0.00,WUHU216HW,2013-01-20 03:46:00,
2013-01-19 22:51:00,35.1,25.2,29.97,SE,135,2.5,2.5,67,0.00,,,0.00,WUHU216HW,2013-01-20 03:51:00,
2013-01-19 22:56:00,35.1,25.2,29.96,SE,135,3.8,3.8,67,0.00,,,0.00,WUHU216HW,2013-01-20 03:56:00,
2013-01-19 23:02:00,34.9,25.0,29.96,SE,135,1.8,3.8,67,0.00,,,0.00,WUHU216HW,2013-01-20 04:02:00,
2013-01-19 23:07:00,34.9,25.0,29.95,SE,135,1.8,2.5,67,0.00,,,0.00,WUHU216HW,2013-01-20 04:07:00,
2013-01-19 23:12:00,34.7,24.8,29.95,SE,135,2.2,2.5,67,0.00,,,0.00,WUHU216HW,2013-01-20 04:12:00,
2013-01-19 23:17:00,34.6,24.7,29.95,SE,135,0.7,2.9,67,0.00,,,0.00,WUHU216HW,2013-01-20 04:17:00,
2013-01-19 23:22:00,34.4,24.8,29.95,SE,135,2.0,2.9,68,0.00,,,0.00,WUHU216HW,2013-01-20 04:22:00,
2013-01-19 23:27:00,34.6,25.0,29.95,SW,225,0.7,2.0,68,0.00,,,0.00,WUHU216HW,2013-01-20 04:27:00,
2013-01-19 23:32:00,34.6,25.0,29.94,West,270,1.6,1.6,68,0.00,,,0.00,WUHU216HW,2013-01-20 04:32:00,
2013-01-19 23:37:00,34.7,25.6,29.94,West,270,0.4,1.6,69,0.00,,,0.00,WUHU216HW,2013-01-20 04:37:00,
2013-01-19 23:43:00,34.7,25.9,29.94,WSW,248,0.4,1.8,70,0.00,,,0.00,WUHU216HW,2013-01-20 04:43:00,
2013-01-19 23:48:00,34.9,26.1,29.93,WSW,248,1.1,1.8,70,0.00,,,0.00,WUHU216HW,2013-01-20 04:48:00,
2013-01-19 23:53:00,34.7,25.6,29.93,ESE,113,0.4,1.6,69,0.00,,,0.00,WUHU216HW,2013-01-20 04:53:00,
2013-01-19 23:58:00,34.7,25.6,29.92,NW,315,0.4,0.4,69,0.00,,,0.00,WUHU216HW,2013-01-20 04:58:00,